FW4376 Weather Reports


time (UTC)temp
F
wind
direction
speed
knots
gust
knots
rain 1hr
in
rain 24hr
in
rain mn
in
humidity
%
barometer
mb
20260903150009 77 314 0.9 5.2 0.00 0.31 0.31 94 1013.7
20260903144508 77 160 1.7 6.1 0.00 0.31 0.31 95 1013.6
20260903143008 77 124 0.0 4.3 0.00 0.31 0.31 95 1013.7
20260903141508 77 149 0.0 3.5 0.00 0.31 0.31 95 1013.9
20260903140007 77 199 0.0 3.5 0.00 0.31 0.31 95 1014.0
20260903134506 77 167 0.9 3.5 0.01 0.31 0.31 95 1013.7
20260903133003 77 264 0.9 5.2 0.03 0.31 0.31 96 1013.6
20260903131502 77 134 0.9 4.3 0.19 0.31 0.31 96 1013.6
20260903130001 76 115 1.7 4.3 0.28 0.31 0.31 96 1013.5
20260903124605 76 125 0.9 3.5 0.27 0.30 0.30 95 1013.3
20260903123059 76 120 0.9 4.3 0.25 0.28 0.28 95 1013.4
20260903121556 76 257 0.9 5.2 0.09 0.12 0.12 95 1013.0
20260903120104 76 243 0.9 3.5 0.00 0.03 0.03 95 1013.1
20260903114557 76 120 0.0 3.5 0.00 0.03 0.03 95 1013.1
20260903113052 76 124 0.0 1.7 0.00 0.03 0.03 95 1012.8
20260903111551 76 126 0.0 2.6 0.00 0.03 0.03 95 1012.8
20260903110055 75 276 0.0 3.5 0.00 0.03 0.03 95 1012.8
20260903104556 75 216 0.0 2.6 0.00 0.03 0.03 95 1012.7
20260903103052 75 161 0.9 4.3 0.00 0.03 0.03 95 1012.7
20260903101554 75 147 0.0 3.5 0.00 0.03 0.03 95 1012.6
20260903100048 75 97 0.0 3.5 0.00 0.03 0.03 95 1012.6
20260903094547 75 205 0.0 2.6 0.01 0.03 0.03 95 1012.7
20260903093104 75 119 0.0 2.6 0.02 0.03 0.03 95 1012.6
20260903091547 75 88 0.0 1.7 0.02 0.03 0.03 95 1012.7
20260903090051 75 140 0.0 4.3 0.03 0.03 0.03 94 1012.7
20260903084545 75 110 0.9 4.3 0.02 0.02 0.02 94 1012.5
20260903083044 75 111 1.7 5.2 0.01 0.01 0.01 94 1012.4
20260903081543 75 149 0.9 6.1 0.01 0.01 0.01 93 1012.3
20260903080041 76 116 1.7 6.1 0.00 0.00 0.00 92 1012.3
20260903074540 76 86 1.7 6.1 0.00 0.00 0.00 91 1012.1
20260903073040 76 120 0.9 6.1 0.00 0.00 0.00 90 1012.0
20260903071537 77 150 0.9 7.0 0.00 0.00 0.00 88 1012.1
20260903070029 77 100 2.6 7.0 0.00 0.00 0.00 88 1012.4
20260903064526 78 168 0.9 6.1 0.00 0.00 0.00 86 1012.4
20260903063046 79 198 1.7 6.1 0.00 0.00 0.00 84 1012.2
20260903061521 80 86 1.7 5.2 0.00 0.00 0.00 82 1012.2
20260903060020 80 96 2.6 7.0 0.00 0.00 0.00 80 1012.3
20260903054517 80 128 0.9 7.0 0.00 0.00 0.00 80 1012.4
20260903053013 80 113 0.9 5.2 0.00 0.00 0.00 79 1012.6
20260903051511 80 288 1.7 6.1 0.00 0.00 0.00 79 1012.7
20260903050010 80 98 0.9 5.2 0.00 0.00 0.00 79 1012.9
20260903044509 81 193 1.7 8.7 0.00 0.00 0.00 77 1013.0
20260903043008 81 259 0.9 5.2 0.00 0.00 0.00 76 1013.1
20260903041514 81 109 0.9 3.5 0.00 0.00 0.00 75 1013.1
20260903040009 82 148 2.6 6.1 0.00 0.00 0.00 74 1013.2
20260903034515 82 166 1.7 6.1 0.00 0.00 0.00 74 1013.1
20260903033006 83 123 0.9 5.2 0.00 0.00 0.00 73 1012.9
20260903031506 83 148 0.0 2.6 0.00 0.00 0.00 71 1013.0
20260903030008 84 134 1.7 6.1 0.00 0.00 0.00 70 1013.0
20260903024505 84 117 0.0 5.2 0.00 0.00 0.00 69 1012.8
20260903023004 85 140 0.9 4.3 0.00 0.00 0.00 67 1012.8
20260903021511 85 98 0.9 5.2 0.00 0.00 0.00 66 1012.6
20260903020003 86 113 1.7 6.1 0.00 0.00 0.00 65 1012.3
20260903014502 87 95 1.7 7.0 0.00 0.00 0.00 63 1012.1
20260903013002 89 120 0.9 7.0 0.00 0.00 0.00 61 1011.7
20260903011502 90 110 0.0 6.1 0.00 0.00 0.00 59 1011.4
20260903010004 91 117 1.7 7.0 0.00 0.00 0.00 56 1011.3
20260903004501 91 133 1.7 7.0 0.00 0.00 0.00 55 1011.2
20260903003059 92 105 1.7 6.1 0.00 0.00 0.00 54 1011.1
20260903001559 93 114 1.7 5.2 0.00 0.00 0.00 53 1011.1
20260903000059 93 83 1.7 7.8 0.00 0.00 0.00 54 1011.0
20260902234557 93 99 0.0 6.1 0.00 0.00 0.00 53 1010.9
20260902233059 94 105 1.7 6.1 0.00 0.00 0.00 52 1010.7
20260902231605 94 70 0.9 5.2 0.00 0.00 0.00 52 1010.7
20260902230057 94 137 0.9 6.1 0.00 0.00 0.00 53 1010.8
20260902224601 94 97 1.7 4.3 0.00 0.00 0.00 55 1010.7
20260902223055 95 44 0.9 3.5 0.00 0.00 0.00 53 1010.7
20260902221554 97 181 0.9 4.3 0.00 0.00 0.00 52 1010.8
20260902220054 99 176 0.9 7.8 0.00 0.00 0.00 46 1010.6
20260902214552 100 307 0.9 6.1 0.00 0.00 0.00 47 1010.6
20260902213055 101 110 1.7 4.3 0.00 0.00 0.00 45 1010.8
20260902211555 101 72 0.0 6.1 0.00 0.00 0.00 45 1010.9
20260902210047 101 316 1.7 6.1 0.00 0.00 0.00 45 1010.9
20260902204542 101 94 1.7 4.3 0.00 0.00 0.00 46 1011.2
20260902203038 100 139 0.9 5.2 0.00 0.00 0.00 47 1011.5
20260902201537 99 110 0.9 3.5 0.00 0.00 0.00 47 1011.7
20260902200034 99 82 1.7 4.3 0.00 0.00 0.00 48 1012.2
20260902194529 99 167 0.9 5.2 0.00 0.00 0.00 47 1012.3
20260902193026 99 4 0.9 5.2 0.00 0.00 0.00 46 1012.5
20260902191534 99 60 0.9 4.3 0.00 0.00 0.00 49 1012.8
20260902190019 98 34 0.9 3.5 0.00 0.00 0.00 48 1013.0
20260902184515 97 23 1.7 5.2 0.00 0.00 0.00 50 1013.3
20260902183014 96 84 0.9 5.2 0.00 0.00 0.00 51 1013.4
20260902181509 95 165 1.7 5.2 0.00 0.00 0.00 51 1013.7
20260902180008 96 41 0.0 5.2 0.00 0.00 0.00 52 1014.3
20260902174506 96 162 0.9 4.3 0.00 0.00 0.00 53 1014.6
20260902173001 95 103 0.0 4.3 0.00 0.00 0.00 54 1014.7
20260902171600 95 290 1.7 5.2 0.00 0.00 0.00 51 1014.9
20260902170059 95 130 0.9 3.5 0.00 0.00 0.00 56 1015.3
20260902164556 94 236 0.9 3.5 0.00 0.00 0.00 57 1015.4
20260902163101 93 304 0.9 2.6 0.00 0.00 0.00 59 1015.5
20260902161555 93 110 0.9 2.6 0.00 0.00 0.00 59 1015.6
20260902160055 92 175 0.0 2.6 0.00 0.00 0.00 61 1015.6
20260902154544 91 151 0.0 2.6 0.00 0.00 0.00 63 1015.6
20260902153042 89 131 0.9 3.5 0.00 0.00 0.00 66 1015.6
20260902151540 89 166 0.9 2.6 0.00 0.00 0.00 67 1015.6